Location: Babice
(50.3480°N, 22.9363°E)
Time: 12:46:53
(UTC+00:00)

Cosmos 1697 Rocket - Pass Details

Date: 14 July 2020
Orbit: 834 x 842 km, 71.0° (Epoch: 07 August)

Event Time Altitude Azimuth Distance (km) Brightness Sun altitude
Rises 00:24:57 0° 329° (NNW) 3,400 6.3 -14.0°
Reaches altitude 10° 00:27:24 10° 329° (NNW) 2,460 5.5 -13.8°
Maximum altitude 00:33:02 79° 244° (WSW) 857 2.6 -13.4°
Drops below altitude 10° 00:38:38 10° 158° (SSE) 2,440 4.7 -12.9°
Enters shadow 00:40:43 - 157° (SSE) 3,242 5.4 -12.8°
